Location: Hilderbrand
(37.5756°N, 89.8540°W)
Time: 12:16:34
(UTC+00:00)

Cosmos 2082 Rocket - Pass Details

Date: 15 November 2025
Orbit: 834 x 851 km, 71.0° (Epoch: 05 December)

Event Time Altitude Azimuth Distance (km) Brightness Sun altitude
Rises 23:22:54 0° 353° (N) 3,387 5.2 -7.3°
Reaches altitude 10° 23:26:22 10° 15° (NNE) 2,449 4.3 -7.9°
Maximum altitude 23:29:45 16° 52° (NE) 2,049 3.6 -8.6°
Drops below altitude 10° 23:33:07 10° 90° (E) 2,443 4.0 -9.2°
Enters shadow 23:33:09 10° 90° (E) 2,451 4.0 -9.2°
